Location: Newark
(52.3500°N, 175.9667°E)
Time: 17:26:46
(UTC+00:00)

X-37B - Pass Details

Date: 13 March 2021
Orbit: 380 x 394 km, 45.0° (Epoch: 07 April)

Event Time Altitude Azimuth Distance (km) Brightness Sun altitude
Rises 08:10:42 0° 225° (SW) 2,270 4.8 -18.0°
Reaches altitude 10° 08:13:18 10° 202° (SSW) 1,420 3.4 -18.3°
Enters shadow 08:13:52 12° 194° (SSW) 1,286 3.1 -18.4°
